FW8825 Weather Reports


time (UTC)temp
F
wind
direction
speed
knots
gust
knots
rain 1hr
in
rain 24hr
in
rain mn
in
humidity
%
barometer
mb
20260506092006 47 30 9.6 14.8 0.00 0.00 0.00 75 1015.2
20260506091505 47 32 9.6 13.9 0.00 0.00 0.00 75 1015.2
20260506091006 47 23 8.7 13.9 0.00 0.00 0.00 75 1015.2
20260506090005 47 24 8.7 14.8 0.00 0.00 0.00 74 1015.2
20260506085505 47 20 7.0 14.8 0.00 0.00 0.00 73 1015.2
20260506085006 47 18 7.8 12.2 0.00 0.00 0.00 73 1015.2
20260506084506 47 30 7.8 14.8 0.00 0.00 0.00 75 1015.3
20260506084006 47 27 7.8 14.8 0.00 0.00 0.00 74 1015.2
20260506083505 47 17 7.0 14.8 0.00 0.00 0.00 74 1015.1
20260506083005 47 19 6.1 14.8 0.00 0.00 0.00 75 1015.2
20260506082506 47 19 6.1 13.0 0.00 0.00 0.00 76 1015.2
20260506081505 46 26 6.1 13.0 0.00 0.00 0.00 75 1015.4
20260506081006 46 23 6.1 13.0 0.00 0.00 0.00 75 1015.2
20260506080505 46 19 7.0 13.0 0.00 0.00 0.00 76 1015.1
20260506073505 46 350 6.1 12.2 0.00 0.00 0.00 77 1015.0
20260506073005 45 347 6.1 12.2 0.00 0.00 0.00 77 1015.0
20260506072505 45 356 6.1 12.2 0.00 0.00 0.00 78 1015.0
20260506072006 45 4 7.0 11.3 0.00 0.00 0.00 78 1015.0
20260506071505 45 359 7.0 12.2 0.00 0.00 0.00 77 1015.0
20260506071005 44 1 7.8 13.9 0.00 0.00 0.00 78 1015.0
20260506070505 44 3 6.1 13.9 0.00 0.00 0.00 77 1015.0
20260506062005 44 10 6.1 10.4 0.00 0.00 0.00 77 1014.7
20260506061005 44 3 8.7 13.0 0.00 0.00 0.00 77 1014.6
20260506045005 43 1 5.2 13.9 0.00 0.00 0.00 82 1014.4
20260506044505 43 2 4.3 13.9 0.00 0.00 0.00 82 1014.5
20260506044004 43 3 3.5 10.4 0.00 0.00 0.00 82 1014.4
20260506043505 43 6 3.5 8.7 0.00 0.00 0.00 82 1014.5
20260506043005 43 7 4.3 8.7 0.00 0.00 0.00 82 1014.5
20260506042505 43 12 4.3 10.4 0.00 0.00 0.00 82 1014.3
20260506042005 43 20 4.3 10.4 0.00 0.00 0.00 82 1014.6
20260506041504 43 23 5.2 8.7 0.00 0.00 0.00 82 1014.6
20260506041005 43 25 5.2 9.6 0.00 0.00 0.00 82 1014.5
20260506040005 43 23 4.3 8.7 0.00 0.00 0.00 82 1014.6
20260506035505 43 16 4.3 10.4 0.00 0.00 0.00 82 1014.5
20260506034505 43 21 5.2 9.6 0.00 0.00 0.00 82 1014.6
20260506034004 43 13 4.3 9.6 0.00 0.00 0.00 82 1014.6
20260506033505 43 5 4.3 8.7 0.00 0.00 0.00 82 1014.7
20260506033005 43 4 4.3 9.6 0.00 0.00 0.00 82 1014.7
20260506032005 43 16 5.2 10.4 0.00 0.00 0.00 82 1014.7
20260506031505 43 13 5.2 10.4 0.00 0.00 0.00 81 1014.7
20260506031004 43 10 5.2 9.6 0.00 0.00 0.00 81 1014.8
20260506030004 43 24 5.2 10.4 0.00 0.00 0.00 81 1014.7
20260506025505 43 23 5.2 10.4 0.00 0.00 0.00 81 1014.7
20260506024504 44 20 4.3 8.7 0.00 0.00 0.00 81 1014.8
20260506023504 44 20 5.2 9.6 0.00 0.00 0.00 80 1014.9
20260506023005 44 11 5.2 9.6 0.00 0.00 0.00 80 1015.0
20260506022505 44 11 4.3 9.6 0.00 0.00 0.00 80 1015.0
20260506022005 44 19 3.5 8.7 0.00 0.00 0.00 80 1015.1
20260506021505 44 17 2.6 6.1 0.00 0.00 0.00 80 1015.0
20260506021005 44 15 3.5 6.1 0.00 0.00 0.00 80 1015.0
20260506020504 44 17 3.5 7.0 0.00 0.00 0.00 80 1015.0
20260506020005 44 15 3.5 7.8 0.00 0.00 0.00 80 1015.0
20260506015504 44 24 3.5 7.8 0.00 0.00 0.00 79 1015.1
20260506015004 44 36 3.5 7.0 0.00 0.00 0.00 79 1015.0
20260506014504 44 37 4.3 7.8 0.00 0.00 0.00 79 1015.1
20260506014004 44 40 4.3 7.8 0.00 0.00 0.00 79 1015.1
20260506013504 44 48 4.3 7.8 0.00 0.00 0.00 79 1015.0
20260506013004 44 47 4.3 7.8 0.00 0.00 0.00 79 1015.1
20260506012504 44 42 4.3 8.7 0.00 0.00 0.00 78 1015.1
20260506012004 44 45 3.5 9.6 0.00 0.00 0.00 78 1015.2
20260506011504 44 42 3.5 9.6 0.00 0.00 0.00 78 1015.2
20260506011004 45 33 2.6 7.8 0.00 0.00 0.00 78 1015.3
20260506010504 45 34 2.6 7.8 0.00 0.00 0.00 78 1015.3
20260506010005 45 37 3.5 7.0 0.00 0.00 0.00 78 1015.2
20260506005504 45 38 4.3 7.8 0.00 0.00 0.00 78 1015.3
20260506005005 45 31 3.5 8.7 0.00 0.00 0.00 78 1015.3
20260506004004 45 17 3.5 7.8 0.00 0.00 0.00 78 1015.3
20260506003504 45 24 4.3 7.0 0.00 0.00 0.00 78 1015.4
20260506003005 45 36 5.2 8.7 0.00 0.00 0.00 78 1015.4
20260506002504 45 41 5.2 9.6 0.00 0.00 0.00 77 1015.4
20260506002005 45 41 4.3 11.3 0.00 0.00 0.00 78 1015.3
20260506000504 45 35 3.5 7.8 0.00 0.00 0.00 78 1015.4
20260506000004 46 41 3.5 7.8 0.00 0.00 0.00 78 1015.4
20260505235504 46 43 4.3 7.0 0.00 0.00 0.00 77 1015.4
20260505235005 46 44 5.2 9.6 0.00 0.00 0.00 77 1015.5
20260505234504 46 49 5.2 9.6 0.00 0.00 0.00 77 1015.5
20260505233507 46 37 4.3 9.6 0.00 0.00 0.00 77 1015.4
20260505233007 46 35 4.3 9.6 0.00 0.00 0.00 77 1015.5
20260505232507 46 43 6.1 8.7 0.00 0.00 0.00 76 1015.4
20260505232008 46 47 7.0 11.3 0.00 0.00 0.00 76 1015.5
20260505231007 46 50 7.0 13.0 0.00 0.00 0.00 76 1015.4
20260505230507 46 54 7.0 11.3 0.00 0.00 0.00 76 1015.5
20260505230008 46 48 7.0 12.2 0.00 0.00 0.00 77 1015.6
20260505225508 46 46 7.8 12.2 0.00 0.00 0.00 77 1015.5
20260505225008 47 49 7.0 11.3 0.00 0.00 0.00 78 1015.4
20260505224508 47 41 6.1 11.3 0.00 0.00 0.00 79 1015.4
20260505224007 47 35 6.1 11.3 0.00 0.00 0.00 79 1015.5
20260505223507 47 42 7.0 10.4 0.00 0.00 0.00 79 1015.5
20260505223007 47 49 7.8 13.9 0.00 0.00 0.00 78 1015.4
20260505222507 47 48 7.8 13.9 0.00 0.00 0.00 78 1015.4
20260505221507 47 47 7.0 12.2 0.00 0.00 0.00 78 1015.3
20260505221007 47 43 7.0 12.2 0.00 0.00 0.00 77 1015.3
20260505220507 47 44 7.0 11.3 0.00 0.00 0.00 77 1015.3
20260505220007 47 45 7.0 11.3 0.00 0.00 0.00 76 1015.4
20260505215507 47 45 7.0 11.3 0.00 0.00 0.00 76 1015.3
20260505215007 47 50 7.8 11.3 0.00 0.00 0.00 75 1015.4
20260505214507 47 47 8.7 13.0 0.00 0.00 0.00 75 1015.5
20260505214007 47 44 8.7 13.9 0.00 0.00 0.00 75 1015.5
20260505213507 47 44 9.6 14.8 0.00 0.00 0.00 74 1015.4
20260505213008 48 46 9.6 15.6 0.00 0.00 0.00 74 1015.4
20260505212507 48 49 8.7 15.6 0.00 0.00 0.00 73 1015.4
20260505212007 48 55 8.7 13.9 0.00 0.00 0.00 72 1015.5
20260505211507 48 54 8.7 13.9 0.00 0.00 0.00 72 1015.5
20260505211007 48 52 9.6 14.8 0.00 0.00 0.00 71 1015.5
20260505210508 48 52 9.6 15.6 0.00 0.00 0.00 72 1015.4
20260505210007 48 49 10.4 15.6 0.00 0.00 0.00 73 1015.4
20260505205507 49 51 10.4 15.6 0.00 0.00 0.00 75 1015.3
20260505205007 49 54 9.6 14.8 0.00 0.00 0.00 76 1015.3
20260505204507 49 56 9.6 15.6 0.00 0.00 0.00 75 1015.2
20260505203007 49 51 7.0 17.4 0.00 0.00 0.00 75 1015.1
20260505202507 50 56 6.1 12.2 0.00 0.00 0.00 77 1015.1
20260505202007 50 51 5.2 11.3 0.00 0.00 0.00 77 1015.0
20260505201507 50 48 7.0 9.6 0.00 0.00 0.00 76 1015.0
20260505201007 50 48 7.8 12.2 0.00 0.00 0.00 76 1015.1
20260505200007 50 39 9.6 13.0 0.00 0.00 0.00 76 1014.9
20260505195506 50 41 9.6 14.8 0.00 0.00 0.00 76 1014.7
20260505195007 50 47 8.7 14.8 0.00 0.00 0.00 76 1014.7
20260505194007 51 52 9.6 13.9 0.00 0.00 0.00 76 1014.3
20260505193507 51 49 8.7 14.8 0.00 0.00 0.00 76 1014.5
20260505193007 51 46 9.6 14.8 0.00 0.00 0.00 76 1014.5
20260505192507 51 44 11.3 16.5 0.00 0.00 0.00 75 1014.5
20260505192007 51 47 11.3 20.0 0.00 0.00 0.00 75 1014.3
20260505191507 51 50 10.4 20.0 0.00 0.00 0.00 74 1014.3
20260505191006 51 48 7.8 18.2 0.00 0.00 0.00 74 1014.3
20260505190506 52 55 7.0 13.9 0.00 0.00 0.00 74 1014.2
20260505190007 52 70 7.0 13.0 0.00 0.00 0.00 75 1014.2
20260505185507 53 66 7.0 13.0 0.00 0.00 0.00 75 1014.0
20260505185007 53 61 7.8 12.2 0.00 0.00 0.00 74 1014.1
20260505184007 54 68 6.1 13.9 0.00 0.00 0.00 72 1013.9
20260505183507 54 54 5.2 12.2 0.00 0.00 0.00 69 1013.9
20260505183007 55 33 5.2 7.8 0.00 0.00 0.00 63 1013.7
20260505182507 55 20 5.2 10.4 0.00 0.00 0.00 63 1013.6
20260505182007 55 18 5.2 12.2 0.00 0.00 0.00 63 1013.7
20260505181506 55 15 6.1 12.2 0.00 0.00 0.00 63 1013.6
20260505181006 55 24 7.0 11.3 0.00 0.00 0.00 63 1013.7
20260505180506 55 28 7.0 12.2 0.00 0.00 0.00 63 1013.7
20260505180006 55 27 7.0 12.2 0.00 0.00 0.00 63 1013.7
20260505175507 55 30 7.0 13.0 0.00 0.00 0.00 63 1013.7
20260505175007 56 28 6.1 13.0 0.00 0.00 0.00 62 1013.7
20260505174507 56 22 6.1 11.3 0.00 0.00 0.00 63 1013.5
20260505174007 56 21 7.0 12.2 0.00 0.00 0.00 62 1013.6
20260505173506 56 11 7.8 13.0 0.00 0.00 0.00 62 1013.7
20260505173008 56 7 7.8 13.0 0.00 0.00 0.00 61 1013.6
20260505172507 56 11 7.8 12.2 0.00 0.00 0.00 62 1013.6
20260505172007 56 5 7.8 13.0 0.00 0.00 0.00 62 1013.7
20260505171006 57 21 6.1 12.2 0.00 0.00 0.00 62 1013.7
20260505170006 57 33 6.1 13.0 0.00 0.00 0.00 62 1013.8
20260505165506 57 35 5.2 13.0 0.00 0.00 0.00 62 1013.6
20260505165006 57 25 6.1 9.6 0.00 0.00 0.00 63 1013.7
20260505164507 57 29 6.1 10.4 0.00 0.00 0.00 63 1013.7
20260505164007 57 31 6.1 11.3 0.00 0.00 0.00 62 1013.6
20260505163507 57 38 6.1 11.3 0.00 0.00 0.00 63 1013.7
20260505163008 57 39 6.1 10.4 0.00 0.00 0.00 63 1013.7
20260505162507 57 26 5.2 13.0 0.00 0.00 0.00 62 1013.6
20260505162006 57 12 5.2 13.0 0.00 0.00 0.00 63 1013.7
20260505161506 58 355 6.1 11.3 0.00 0.00 0.00 62 1013.6
20260505161006 58 351 6.1 12.2 0.00 0.00 0.00 62 1013.6
20260505160506 58 343 6.1 12.2 0.00 0.00 0.00 61 1013.6
20260505153006 57 11 7.0 11.3 0.00 0.00 0.00 63 1013.7
20260505152506 57 19 6.1 12.2 0.00 0.00 0.00 63 1013.7
20260505151506 57 8 6.1 10.4 0.00 0.00 0.00 63 1013.8
20260505150507 57 22 6.1 10.4 0.00 0.00 0.00 63 1013.9
20260505140507 56 356 6.1 12.2 0.00 0.00 0.00 64 1013.8
20260505125006 58 358 4.3 7.8 0.00 0.00 0.00 64 1013.7
20260505124006 58 24 3.5 9.6 0.00 0.00 0.00 63 1013.8
20260505123506 58 355 3.5 9.6 0.00 0.00 0.00 63 1013.7
20260505122506 57 10 3.5 7.8 0.00 0.00 0.00 63 1013.8
20260505122006 57 5 5.2 7.8 0.00 0.00 0.00 63 1013.8
20260505121505 58 6 4.3 8.7 0.00 0.00 0.00 62 1013.9
20260505121005 58 1 3.5 9.6 0.00 0.00 0.00 63 1013.9
20260505120506 58 353 3.5 9.6 0.00 0.00 0.00 63 1013.7
20260505120006 58 351 4.3 8.7 0.00 0.00 0.00 64 1013.9
20260505115506 58 12 3.5 8.7 0.00 0.00 0.00 62 1013.8
20260505115006 57 24 3.5 8.7 0.00 0.00 0.00 63 1013.8
20260505114506 58 10 2.6 8.7 0.00 0.00 0.00 63 1014.1
20260505113505 57 16 4.3 7.8 0.00 0.00 0.00 63 1014.0
20260505113006 58 340 5.2 10.4 0.00 0.00 0.00 63 1014.0
20260505112506 58 305 5.2 10.4 0.00 0.00 0.00 62 1014.1
20260505112006 58 293 3.5 9.6 0.00 0.00 0.00 61 1014.1
20260505111506 58 315 3.5 8.7 0.00 0.00 0.00 63 1014.1
20260505111006 57 336 4.3 7.8 0.00 0.00 0.00 65 1014.1
20260505110506 57 345 5.2 7.8 0.00 0.00 0.00 64 1014.1
20260505101505 57 328 2.6 7.0 0.00 0.00 0.00 68 1014.3
20260505101005 56 334 3.5 7.0 0.00 0.00 0.00 67 1014.4
20260505100006 56 339 3.5 8.7 0.00 0.00 0.00 67 1014.5
20260505095505 55 335 3.5 7.8 0.00 0.00 0.00 66 1014.5
20260505094506 55 335 4.3 9.6 0.00 0.00 0.00 66 1014.5
20260505094005 55 339 4.3 9.6 0.00 0.00 0.00 67 1014.5
20260505093505 55 330 3.5 8.7 0.00 0.00 0.00 68 1014.5
20260505093005 55 326 2.6 7.8 0.00 0.00 0.00 69 1014.4